Starlink 30564

operational
NORAD ID: 58043 Int'l Des: 2023-156 Owner: SPXS Country: US Constellation: starlink
LEOCIRCULAR

About Starlink 30564

Description loading...

Live Position

Loading 3D Globe...

Upcoming Passes

Altitude History

Altitude vs Time

uPlot chart will show altitude changes over time

Two-Line Element Set

1 58043U 23156R 25351.33890695 -.00025288 00000-0 -84497-3 0 9998
2 58043 53.1573 101.0025 0001205 87.6948 272.4191 15.30184568123705
Epoch: Dec 17, 2025 • Age: 7 hours

Current Status

Altitude 475.2 km
Velocity 7.63 km/s
Sub-Earth Point 15.39°N, 45.23°W
Launch Date Oct 9, 2023
Age 2.1 years
Type internet

Technical Details

Classification Payload
Mass 730.00 kg
Dry Mass 700.00 kg
Total Mass 730.00 kg
Length 0.30 m
Diameter 4.10 m
Span 29.00 m
Shape Box + pan
Manufacturer SPXS
Bus Type Starlink V2M
Phase Status In Orbit
Owner/State SPXS/US

Large Constellations

Loading constellations...